Weather History for Hutchinson, MN

Change the Weather History Date:

Saturday, August 24, 2013

  Actual Average Record
Temperature  
Mean Temperature 78 °F -  
Max Temperature 86 °F 79 °F 93 °F (2003)
Min Temperature 69 °F 58 °F 44 °F (2008)
Cooling Degree Days 12    
Growing Degree Days 28 (Base 50)    
Moisture  
Dew Point 71 °F    
Average Humidity 80    
Maximum Humidity 95    
Minimum Humidity 60    
Precipitation  
Precipitation 0.00 in - - ()
Sea Level Pressure  
Sea Level Pressure 30.00 in    
Wind  
Wind Speed 8 mph (SSE)    
Max Wind Speed 16 mph    
Max Gust Speed 26 mph    
Visibility 10 miles    
Events      
Averages and records for this station are not official NWS values.
T = Trace of Precipitation, MM = Missing Value Source: NWS Daily Summary

Daily Weather History Graph

Daily Weather History Graph

Search for Another Location

Airport:

Trip Planner

Search our weather history database for the weather conditions in past years. The results will help you decide how hot, cold, wet, or windy it might be!

Date:

Astronomy

Aug. 24, 2013 Rise Set
Actual Time 6:30 AM CDT 8:08 PM CDT
Civil Twilight 5:59 AM CDT 8:38 PM CDT
Nautical Twilight 5:22 AM CDT 9:16 PM CDT
Astronomical Twilight 4:41 AM CDT 9:56 PM CDT
Moon 9:48 PM CDT (8/24) 10:44 AM CDT (8/24)
Length of Visible Light 14h 39m
Length of Day
13h 37m
Waning Gibbous, 84% of the Moon is Illuminated
Aug 24
Waning Gibbous
Aug 28
Last Quarter
Sep 5
New
Sep 12
First Quarter
Sep 19
Full

Hourly Weather History & Observations

Time (CDT) Temp. Heat Index Dew Point Humidity Pressure Visibility Wind Dir Wind Speed Gust Speed Precip Events Conditions
12:13 AM 71.4 °F - 68.4 °F 90% 30.05 in 10.0 mi SE 4.6 mph - N/A   Clear
12:34 AM 70.9 °F - 68.4 °F 92% 30.05 in 10.0 mi SE 4.6 mph - N/A   Clear
12:53 AM 70.7 °F - 68.4 °F 92% 30.05 in 10.0 mi SE 5.8 mph - N/A   Scattered Clouds
1:13 AM 70.7 °F - 68.4 °F 92% 30.04 in 10.0 mi SE 5.8 mph - N/A   Clear
1:34 AM 70.5 °F - 68.4 °F 93% 30.05 in 10.0 mi SE 4.6 mph - N/A   Scattered Clouds
1:53 AM 70.2 °F - 68.4 °F 94% 30.04 in 10.0 mi SE 4.6 mph - N/A   Scattered Clouds
2:13 AM 69.8 °F - 68.2 °F 95% 30.05 in 10.0 mi SE 4.6 mph - N/A   Mostly Cloudy
2:19 AM 69.8 °F - 68.2 °F 95% 30.04 in 10.0 mi SE 4.6 mph - N/A   Mostly Cloudy
2:45 AM 69.8 °F - 68.0 °F 94% 30.05 in 10.0 mi SE 4.6 mph - N/A   Scattered Clouds
3:05 AM 69.8 °F - 68.0 °F 94% 30.05 in 10.0 mi SE 4.6 mph - N/A   Clear
3:25 AM 69.8 °F - 68.0 °F 94% 30.05 in 10.0 mi SE 5.8 mph - N/A   Clear
3:44 AM 69.8 °F - 68.0 °F 94% 30.05 in 10.0 mi SE 3.5 mph - N/A   Scattered Clouds
3:53 AM 69.8 °F - 68.0 °F 94% 30.05 in 10.0 mi SE 4.6 mph - N/A   Mostly Cloudy
4:13 AM 69.8 °F - 68.0 °F 94% 30.05 in 10.0 mi SE 4.6 mph - N/A   Scattered Clouds
4:34 AM 69.8 °F - 68.0 °F 94% 30.05 in 10.0 mi SE 5.8 mph - N/A   Scattered Clouds
4:53 AM 70.0 °F - 68.0 °F 93% 30.05 in 10.0 mi SE 6.9 mph - N/A   Scattered Clouds
5:14 AM 70.0 °F - 68.0 °F 93% 30.05 in 10.0 mi SE 6.9 mph - N/A   Scattered Clouds
5:33 AM 69.8 °F - 67.8 °F 93% 30.05 in 10.0 mi SE 6.9 mph - N/A   Scattered Clouds
5:53 AM 70.0 °F - 68.0 °F 93% 30.05 in 10.0 mi SE 8.1 mph - N/A   Scattered Clouds
6:14 AM 70.2 °F - 68.0 °F 93% 30.05 in 10.0 mi SE 6.9 mph - N/A   Mostly Cloudy
6:33 AM 70.7 °F - 68.2 °F 92% 30.05 in 10.0 mi SE 8.1 mph - N/A   Mostly Cloudy
6:53 AM 70.7 °F - 68.2 °F 92% 30.05 in 10.0 mi SSE 6.9 mph - N/A   Scattered Clouds
7:13 AM 71.2 °F - 68.4 °F 91% 30.04 in 10.0 mi SE 9.2 mph - N/A   Scattered Clouds
7:34 AM 71.8 °F - 68.7 °F 90% 30.03 in 10.0 mi SE 10.4 mph - N/A   Scattered Clouds
7:53 AM 72.5 °F - 68.9 °F 88% 30.04 in 10.0 mi SSE 6.9 mph - N/A   Clear
8:14 AM 73.6 °F - 69.3 °F 86% 30.04 in 10.0 mi SSE 11.5 mph - N/A   Clear
8:33 AM 74.5 °F - 69.8 °F 85% 30.04 in 10.0 mi SSE 8.1 mph - N/A   Clear
8:54 AM 75.9 °F - 70.3 °F 83% 30.03 in 10.0 mi SE 9.2 mph - N/A   Clear
9:13 AM 77.4 °F - 70.9 °F 80% 30.03 in 10.0 mi SSE 6.9 mph 16.1 mph N/A   Clear
9:34 AM 77.2 °F - 70.7 °F 80% 30.03 in 10.0 mi South 12.7 mph 19.6 mph N/A   Clear
9:54 AM 77.5 °F - 70.7 °F 79% 30.02 in 10.0 mi South 9.2 mph 23.0 mph N/A   Clear
10:14 AM 77.2 °F - 70.7 °F 80% 30.01 in 10.0 mi SSE 8.1 mph 19.6 mph N/A   Clear
10:34 AM 77.2 °F - 70.9 °F 81% 30.01 in 10.0 mi SSE 10.4 mph 16.1 mph N/A   Clear
10:54 AM 79.3 °F - 72.1 °F 79% 30.01 in 10.0 mi SSE 9.2 mph 20.7 mph N/A   Clear
11:13 AM 81.3 °F 86.3 °F 73.2 °F 76% 30.01 in 10.0 mi South 9.2 mph 18.4 mph N/A   Clear
11:33 AM 82.0 °F 87.2 °F 72.7 °F 73% 30.00 in 10.0 mi South 13.8 mph 20.7 mph N/A   Clear
11:54 AM 83.5 °F 89.7 °F 73.0 °F 71% 30.00 in 10.0 mi South 13.8 mph 20.7 mph N/A   Clear
12:13 PM 83.1 °F 88.9 °F 72.7 °F 71% 30.00 in 10.0 mi South 13.8 mph 24.2 mph N/A   Scattered Clouds
12:33 PM 83.8 °F 89.8 °F 72.5 °F 69% 29.99 in 10.0 mi SSE 13.8 mph 23.0 mph N/A   Clear
12:54 PM 84.7 °F 91.0 °F 72.7 °F 67% 29.99 in 10.0 mi South 15.0 mph 19.6 mph N/A   Clear
1:13 PM 85.1 °F 90.8 °F 71.6 °F 64% 29.98 in 10.0 mi SSE 12.7 mph 20.7 mph N/A   Clear
1:33 PM 85.5 °F 92.2 °F 73.0 °F 66% 29.98 in 10.0 mi SSE 9.2 mph 17.3 mph N/A   Clear
1:53 PM 86.4 °F 91.8 °F 71.1 °F 60% 29.98 in 10.0 mi SSE 12.7 mph 23.0 mph N/A   Clear
2:14 PM 86.9 °F 93.7 °F 72.7 °F 62% 29.98 in 10.0 mi SSE 10.4 mph 19.6 mph N/A   Clear
2:33 PM 86.9 °F 94.1 °F 72.9 °F 63% 29.98 in 10.0 mi South 11.5 mph 21.9 mph N/A   Clear
2:54 PM 86.4 °F 93.0 °F 72.5 °F 63% 29.97 in 10.0 mi SSE 11.5 mph 21.9 mph N/A   Clear
3:14 PM 85.6 °F 91.8 °F 72.1 °F 64% 29.97 in 10.0 mi SSE 11.5 mph 19.6 mph N/A   Clear
3:34 PM 85.1 °F 91.8 °F 73.0 °F 67% 29.96 in 10.0 mi SSE 10.4 mph - N/A   Clear
3:53 PM 85.1 °F 91.8 °F 72.9 °F 67% 29.95 in 10.0 mi SSE 12.7 mph 19.6 mph N/A   Clear
4:14 PM 85.6 °F 91.8 °F 72.3 °F 64% 29.95 in 10.0 mi South 16.1 mph 25.3 mph N/A   Clear
4:34 PM 84.7 °F 91.4 °F 73.0 °F 68% 29.95 in 10.0 mi SSE 11.5 mph 20.7 mph N/A   Clear
4:53 PM 84.4 °F 91.0 °F 73.4 °F 69% 29.94 in 10.0 mi SSE 10.4 mph 19.6 mph N/A   Clear
5:14 PM 85.1 °F 91.8 °F 73.2 °F 67% 29.94 in 10.0 mi SSE 11.5 mph 23.0 mph N/A   Clear
5:34 PM 84.7 °F 91.0 °F 72.5 °F 67% 29.94 in 10.0 mi SSE 15.0 mph 23.0 mph N/A   Clear
5:53 PM 83.8 °F 89.8 °F 72.5 °F 69% 29.93 in 10.0 mi SSE 13.8 mph 20.7 mph N/A   Clear
6:14 PM 83.5 °F 89.4 °F 72.7 °F 70% 29.94 in 10.0 mi South 11.5 mph 26.5 mph N/A   Clear
6:33 PM 83.7 °F 90.1 °F 73.2 °F 71% 29.94 in 10.0 mi South 13.8 mph 24.2 mph N/A   Clear
6:53 PM 83.7 °F 90.4 °F 73.8 °F 72% 29.93 in 10.0 mi South 11.5 mph 20.7 mph N/A   Clear
7:13 PM 83.3 °F 89.9 °F 73.9 °F 73% 29.93 in 10.0 mi South 11.5 mph 21.9 mph N/A   Clear
7:33 PM 82.6 °F 89.1 °F 74.3 °F 76% 29.93 in 10.0 mi South 12.7 mph 19.6 mph N/A   Clear
7:53 PM 82.4 °F 88.7 °F 74.1 °F 76% 29.93 in 10.0 mi South 13.8 mph 20.7 mph N/A   Clear
8:14 PM 82.0 °F 87.9 °F 73.9 °F 76% 29.93 in 10.0 mi South 11.5 mph 19.6 mph N/A   Clear
8:33 PM 81.7 °F 87.1 °F 73.6 °F 76% 29.94 in 10.0 mi South 11.5 mph 16.1 mph N/A   Clear
8:54 PM 81.5 °F 86.9 °F 73.6 °F 77% 29.94 in 10.0 mi South 12.7 mph 18.4 mph N/A   Clear
9:14 PM 81.0 °F 86.2 °F 73.8 °F 79% 29.95 in 10.0 mi South 10.4 mph 17.3 mph N/A   Clear
9:34 PM 80.6 °F 85.5 °F 73.8 °F 80% 29.95 in 10.0 mi South 9.2 mph 16.1 mph N/A   Clear
9:54 PM 80.1 °F 84.5 °F 73.6 °F 81% 29.95 in 10.0 mi South 10.4 mph 16.1 mph N/A   Clear
10:14 PM 80.1 °F 84.4 °F 73.4 °F 80% 29.95 in 10.0 mi South 12.7 mph 16.1 mph N/A   Clear
10:33 PM 79.9 °F - 73.0 °F 80% 29.96 in 10.0 mi South 9.2 mph 16.1 mph N/A   Clear
10:53 PM 79.7 °F - 72.7 °F 79% 29.96 in 10.0 mi South 10.4 mph 17.3 mph N/A   Clear
11:13 PM 79.7 °F - 72.7 °F 79% 29.96 in 10.0 mi South 10.4 mph - N/A   Clear
11:34 PM 79.7 °F - 72.1 °F 78% 29.97 in 10.0 mi South 10.4 mph 17.3 mph N/A   Clear
11:54 PM 79.5 °F - 71.8 °F 77% 29.97 in 10.0 mi South 8.1 mph 17.3 mph N/A   Clear